Weather in Suusamyr

Kyrgyzstan     42°11′08″N   73°57′27″E
В апреле 2022 года жителям России запретили посещать сайт meteo.paraplan.net по решению Генеральной прокуратуры. Аудитория сайта уменьшилась в 10 раз. Владельцы сайта не видят смысла в поддержке погодного сервера в таких условиях. Сайт будет закрыт в октябре.
temp.,
°C
wind,
m/s
gust,
m/s
humid.,
%
clouds,
%
prec.,
mm/h
press.,
hPa
HPBL,
m
3 october, mon
mon300:00+4sse116398 0.0 101814
03:00+2n11665 0.0 101712
06:00+2n11715 0.0 101712
09:00+6n115112 0.0 1017220
12:00+10w1137100 0.0 1014805
15:00+12sw1235100 0.1 10121888
18:00+7n4554100 0.8 1016477
21:00+4nnw116799 0.3 101929
4 october, tue
tue400:00+3e117087 0.4 102011
03:00+2nnw01785 0.0 102011
06:00+1ese01815 0.0 102210
09:00+5se11616 0.0 1022246
12:00+8n144137 0.0 10201553
15:00+12sw472356 0.1 10173020
18:00+10w352896 0.3 1018256
21:00+5nne335999 0.1 102244
5 october, wed
wed500:00+3ne11600 0.1 102210
03:00+2e11630 0.0 102311
06:000sse11680 0.0 102410
09:00+4s01520 0.0 1025256
12:00+9wnw13322 0.0 10221453
15:00+12wsw36159 0.0 10193603
18:00+9nnw55320 0.2 1021265
21:00+3n22671 0.0 102645
6 october, thu
thu600:00+2wsw11680 0.0 102610
03:00+1n11693 0.0 102510
06:000s01750 0.0 102610
09:00+3wnw1157100 0.0 1027228
12:00+9w12367 0.0 1023772
15:00+12wsw132641 0.0 10191984
18:00+11nw113076 0.0 101931
21:00+6nne22455 0.0 102216
7 october, fri
fri700:00+5ne114874 0.0 102311
03:00+3e11527 0.0 102210
06:00+2ene11585 0.0 102310
09:00+7ssw11425 0.0 1023201
12:00+10sw0133100 0.0 1020884
15:00+13s2226100 0.0 10181674
18:00+9w5545100 0.0 1021629
21:00+6e1262100 0.1 102427